Terminal Aerodrome Forecast
Issued by NWS Aberdeen, SD

Home | Current Version | Previous Version | Text Only | Print | Product List | Glossary On
Versions: 1 2 3 4 5 6 7 8 9 10 11 12 13 14 15 16 17 18 19 20 21 22 23 24 25 26 27 28 29 30 31 32 33 34 35 36 37 38 39 40 41 42 43 44 45 46 47 48 49 50
858
FTUS43 KABR 081005 CCA
TAFABR
TAF COR
KABR 081005Z 0810/0906 34020G30KT P6SM -SN OVC040
      TEMPO 0810/0812 5SM -SN OVC030
     FM081400 35020G28KT P6SM OVC040
     FM081700 34020G30KT P6SM BKN250
     FM090100 34013KT P6SM SKC=

USA.gov is the U.S. government's official web portal to all federal, state and local government web resources and services.